TimePDT,TemperatureF,Dew PointF,Humidity,Sea Level PressureIn,VisibilityMPH,Wind Direction,Wind SpeedMPH,Gust SpeedMPH,PrecipitationIn,Events,Conditions,WindDirDegrees,DateUTC
12:15 AM,64.4,26.6,24,30.04,10.0,Calm,Calm,-,N/A,,Clear,0,2012-10-19 07:15:00
12:35 AM,62.6,28.4,27,30.04,10.0,Calm,Calm,-,N/A,,Clear,0,2012-10-19 07:35:00
12:55 AM,57.2,32.0,38,30.04,10.0,North,3.5,-,N/A,,Clear,350,2012-10-19 07:55:00
1:15 AM,59.0,32.0,36,30.04,10.0,Calm,Calm,-,N/A,,Clear,0,2012-10-19 08:15:00
1:35 AM,59.0,30.2,34,30.04,10.0,Calm,Calm,-,N/A,,Clear,0,2012-10-19 08:35:00
1:55 AM,60.8,26.6,27,30.04,10.0,Calm,Calm,-,N/A,,Clear,0,2012-10-19 08:55:00
2:15 AM,62.6,24.8,24,30.04,10.0,WNW,3.5,-,N/A,,Clear,300,2012-10-19 09:15:00
2:35 AM,60.8,28.4,29,30.04,10.0,Calm,Calm,-,N/A,,Clear,0,2012-10-19 09:35:00
2:55 AM,60.8,26.6,27,30.03,10.0,Calm,Calm,-,N/A,,Clear,0,2012-10-19 09:55:00
3:15 AM,59.0,28.4,31,30.03,10.0,Calm,Calm,-,N/A,,Clear,0,2012-10-19 10:15:00
3:35 AM,59.0,26.6,29,30.03,10.0,NW,5.8,-,N/A,,Clear,310,2012-10-19 10:35:00
3:55 AM,62.6,26.6,26,30.03,10.0,Calm,Calm,-,N/A,,Clear,0,2012-10-19 10:55:00
4:15 AM,59.0,24.8,27,30.03,10.0,North,6.9,-,N/A,,Clear,350,2012-10-19 11:15:00
4:35 AM,64.4,24.8,22,30.02,10.0,NNW,3.5,-,N/A,,Clear,340,2012-10-19 11:35:00
4:55 AM,59.0,28.4,31,30.03,10.0,SE,3.5,-,N/A,,Clear,130,2012-10-19 11:55:00
5:15 AM,55.4,26.6,33,30.03,10.0,Calm,Calm,-,N/A,,Clear,0,2012-10-19 12:15:00
5:35 AM,55.4,28.4,36,30.03,10.0,NE,3.5,-,N/A,,Clear,40,2012-10-19 12:35:00
5:55 AM,59.0,24.8,27,30.03,10.0,ESE,3.5,-,N/A,,Clear,110,2012-10-19 12:55:00
6:15 AM,55.4,30.2,38,30.03,10.0,Calm,Calm,-,N/A,,Clear,0,2012-10-19 13:15:00
6:35 AM,53.6,30.2,41,30.03,10.0,Calm,Calm,-,N/A,,Clear,0,2012-10-19 13:35:00
6:55 AM,53.6,28.4,38,30.03,10.0,Calm,Calm,-,N/A,,Clear,0,2012-10-19 13:55:00
7:15 AM,57.2,26.6,31,30.04,10.0,NW,9.2,-,N/A,,Clear,310,2012-10-19 14:15:00
7:35 AM,59.0,28.4,31,30.05,10.0,South,3.5,-,N/A,,Clear,170,2012-10-19 14:35:00
7:55 AM,64.4,28.4,26,30.06,10.0,Calm,Calm,-,N/A,,Clear,0,2012-10-19 14:55:00
8:15 AM,59.0,28.4,31,30.06,10.0,Calm,Calm,-,N/A,,Clear,0,2012-10-19 15:15:00
8:35 AM,59.0,28.4,31,30.07,10.0,Calm,Calm,-,N/A,,Clear,0,2012-10-19 15:35:00
8:55 AM,60.8,28.4,29,30.07,10.0,WSW,3.5,-,N/A,,Clear,250,2012-10-19 15:55:00
9:15 AM,64.4,26.6,24,30.07,10.0,Calm,Calm,-,N/A,,Clear,0,2012-10-19 16:15:00
9:35 AM,66.2,26.6,23,30.06,10.0,Calm,Calm,-,N/A,,Clear,0,2012-10-19 16:35:00
9:55 AM,68.0,28.4,23,30.06,10.0,Calm,Calm,-,N/A,,Clear,0,2012-10-19 16:55:00
10:15 AM,69.8,26.6,20,30.05,10.0,Calm,Calm,-,N/A,,Clear,0,2012-10-19 17:15:00
10:35 AM,71.6,26.6,19,30.04,10.0,Calm,Calm,-,N/A,,Clear,0,2012-10-19 17:35:00
10:55 AM,73.4,26.6,18,30.04,10.0,Calm,Calm,-,N/A,,Clear,0,2012-10-19 17:55:00
11:15 AM,75.2,26.6,17,30.03,10.0,Calm,Calm,-,N/A,,Clear,0,2012-10-19 18:15:00
11:35 AM,75.2,30.2,19,30.03,10.0,Calm,Calm,-,N/A,,Clear,0,2012-10-19 18:35:00
11:55 AM,77.0,32.0,19,30.02,10.0,ESE,4.6,-,N/A,,Clear,110,2012-10-19 18:55:00
12:15 PM,77.0,26.6,16,30.01,10.0,NE,4.6,-,N/A,,Clear,40,2012-10-19 19:15:00
12:35 PM,78.8,28.4,16,30.00,10.0,ENE,5.8,-,N/A,,Clear,60,2012-10-19 19:35:00
12:55 PM,78.8,30.2,17,29.99,10.0,East,3.5,-,N/A,,Clear,80,2012-10-19 19:55:00
1:15 PM,80.6,26.6,14,29.97,10.0,ENE,4.6,-,N/A,,Clear,70,2012-10-19 20:15:00
1:35 PM,82.4,26.6,13,29.97,10.0,NE,4.6,-,N/A,,Clear,40,2012-10-19 20:35:00
1:55 PM,82.4,26.6,13,29.96,10.0,NNE,4.6,-,N/A,,Clear,30,2012-10-19 20:55:00
2:15 PM,82.4,24.8,12,29.95,10.0,ENE,5.8,-,N/A,,Clear,60,2012-10-19 21:15:00
2:35 PM,82.4,24.8,12,29.94,10.0,NE,4.6,-,N/A,,Clear,40,2012-10-19 21:35:00
2:55 PM,82.4,24.8,12,29.93,10.0,ENE,4.6,-,N/A,,Clear,60,2012-10-19 21:55:00
3:15 PM,82.4,24.8,12,29.92,10.0,NE,3.5,-,N/A,,Clear,40,2012-10-19 22:15:00
3:35 PM,82.4,23.0,11,29.91,10.0,Calm,Calm,-,N/A,,Clear,0,2012-10-19 22:35:00
3:55 PM,82.4,24.8,12,29.91,10.0,NE,5.8,-,N/A,,Clear,50,2012-10-19 22:55:00
4:15 PM,82.4,23.0,11,29.90,10.0,NE,5.8,-,N/A,,Clear,40,2012-10-19 23:15:00
4:35 PM,82.4,24.8,12,29.90,10.0,NNE,4.6,-,N/A,,Clear,30,2012-10-19 23:35:00
4:55 PM,82.4,24.8,12,29.89,10.0,NE,4.6,-,N/A,,Clear,40,2012-10-19 23:55:00
5:15 PM,82.4,28.4,14,29.89,10.0,NNE,4.6,-,N/A,,Clear,30,2012-10-20 00:15:00
5:35 PM,80.6,28.4,15,29.88,10.0,NE,5.8,-,N/A,,Clear,40,2012-10-20 00:35:00
5:55 PM,77.0,28.4,17,29.88,10.0,NE,6.9,-,N/A,,Clear,40,2012-10-20 00:55:00
6:15 PM,73.4,28.4,19,29.88,10.0,NE,6.9,-,N/A,,Clear,40,2012-10-20 01:15:00
6:35 PM,73.4,28.4,19,29.88,10.0,NNE,6.9,-,N/A,,Clear,30,2012-10-20 01:35:00
6:55 PM,71.6,32.0,23,29.88,10.0,NNE,6.9,-,N/A,,Clear,30,2012-10-20 01:55:00
7:15 PM,71.6,32.0,23,29.88,10.0,NE,5.8,-,N/A,,Clear,40,2012-10-20 02:15:00
7:35 PM,69.8,32.0,25,29.88,10.0,NE,6.9,-,N/A,,Clear,40,2012-10-20 02:35:00
7:55 PM,66.2,32.0,28,29.88,10.0,NNE,5.8,-,N/A,,Clear,30,2012-10-20 02:55:00
8:15 PM,66.2,32.0,28,29.88,10.0,NNE,3.5,-,N/A,,Clear,20,2012-10-20 03:15:00
8:35 PM,66.2,32.0,28,29.88,10.0,Calm,Calm,-,N/A,,Clear,0,2012-10-20 03:35:00
8:55 PM,64.4,37.4,37,29.88,10.0,Calm,Calm,-,N/A,,Clear,0,2012-10-20 03:55:00
9:15 PM,68.0,33.8,28,29.89,10.0,East,3.5,-,N/A,,Clear,100,2012-10-20 04:15:00
9:35 PM,62.6,37.4,39,29.89,10.0,Calm,Calm,-,N/A,,Clear,0,2012-10-20 04:35:00
9:55 PM,62.6,35.6,37,29.89,10.0,North,4.6,-,N/A,,Clear,360,2012-10-20 04:55:00
10:15 PM,62.6,32.0,32,29.89,10.0,North,4.6,-,N/A,,Clear,350,2012-10-20 05:15:00
10:35 PM,62.6,32.0,32,29.88,10.0,NNW,3.5,-,N/A,,Clear,330,2012-10-20 05:35:00
10:55 PM,62.6,32.0,32,29.88,10.0,Calm,Calm,-,N/A,,Clear,0,2012-10-20 05:55:00
11:15 PM,62.6,32.0,32,29.88,10.0,Calm,Calm,-,N/A,,Clear,0,2012-10-20 06:15:00
11:35 PM,60.8,35.6,39,29.88,10.0,Calm,Calm,-,N/A,,Clear,0,2012-10-20 06:35:00
11:55 PM,60.8,32.0,34,29.87,10.0,Calm,Calm,-,N/A,,Clear,0,2012-10-20 06:55:00